Regional Weather Roundup
Issued by NWS Cleveland, OH

Home | Current Version | Previous Version | Graphics & Text | Print | Product List | Glossary On
Versions: 1 2 3 4 5 6 7 8 9 10 11 12 13 14 15 16 17 18 19 20 21 22 23 24 25 26 27 28 29 30 31 32 33 34 35 36 37 38 39 40 41 42 43 44 45 46 47 48 49 50
000
ASUS41 KCLE 242002
RWRCLE
OHIO REGIONAL WEATHER ROUNDUP
NATIONAL WEATHER SERVICE CLEVELAND, OH
400 PM EDT THU JUL 24 2014

NOTE: "FAIR" INDICATES FEW OR NO CLOUDS BELOW 12,000 FEET WITH NO
SIGNIFICANT WEATHER AND/OR OBSTRUCTIONS TO VISIBILITY.

OHZ001>008-015>018-024>027-034-035-043-044-242100-
   NORTHWEST OHIO

CITY           SKY/WX    TMP DP  RH WIND       PRES   REMARKS
DEFIANCE       PTSUNNY   77  50  38 NE9       30.09F
FINDLAY        MOSUNNY   74  49  41 NE12      30.08S
TOLEDO EXPRESS PTSUNNY   75  48  38 NE10      30.08F
TOLEDO EXEC    MOSUNNY   74  49  41 NE8       30.10S
LIMA           CLOUDY    72  54  53 NE10      30.09S
$$

OHZ009>014-019>023-028>033-038-089-242100-
   NORTHEAST OHIO

CITY           SKY/WX    TMP DP  RH WIND       PRES   REMARKS
CLE-HOPKINS    MOSUNNY   71  50  47 N12       30.10S
CLE-LAKEFRONT  SUNNY     70  51  51 N13       30.06S
CUY CO. ARPT   NOT AVBL
LORAIN-ELYRIA  SUNNY     74  48  39 NE13G22   30.08F
ASHTABULA      SUNNY     69  49  48 N8        30.07F
AKRON-CANTON   PTSUNNY   73  53  49 NE8G16    30.04F
WOOSTER        MOSUNNY   74  52  46 N15       30.06S
MANSFIELD      SUNNY     71  53  52 N14       30.08R
YOUNGSTOWN     PTSUNNY   71  50  47 N12       30.04F
$$

OHZ042-051>053-060>062-070>072-077>081-242100-
  SOUTHWEST OHIO

CITY           SKY/WX    TMP DP  RH WIND       PRES   REMARKS
CINC-COVINGTON PTSUNNY   75  53  46 N13       30.06S
CINC-LUNKEN    PTSUNNY   77  57  50 NE9       30.05S
HAMILTON       MOSUNNY   77  56  48 VRB7      30.07S
DAYTON         PTSUNNY   72  54  53 NE13      30.09R
WRIGHT-PAT AFB PTSUNNY   74  55  51 N9        30.07R
DAYTON GENERAL PTSUNNY   72  55  55 N12       30.06S
WILMINGTON     PTSUNNY   75  54  47 N13G20    30.05S
$$

OHZ036-037-039>041-045>050-054>059-063>069-073>076-082>088-242100-
  CENTRAL AND SOUTHEAST OHIO

CITY           SKY/WX    TMP DP  RH WIND       PRES   REMARKS
COLUMBUS       MOSUNNY   76  55  48 N6        30.03S
OSU AIRPORT    MOSUNNY   76  57  51 NE16G22   30.04S
BOLTON FIELD   CLOUDY    73  57  56 N7G16     30.04F
RICKENBACK AFB PTSUNNY   76  48  36 NE9G16    30.02F
NEWARK         PTSUNNY   76  57  51 N7        30.02F
MARION         SUNNY     73  51  46 N18       30.07S
LANCASTER      PTSUNNY   76  55  48 N8        30.03F
ZANESVILLE     PTSUNNY   74  53  48 NE8       30.02F
NEW PHILLY     MOSUNNY   75  56  51 N8        30.03S
$$



USA.gov is the U.S. government's official web portal to all federal, state and local government web resources and services.